Skip Page Navigation
NASA JPL Caltech
NASA Logo - Jet Propulsion Laboratory + View the NASA Portal
+ Near-Earth Object (NEO) Program
Search JPL
JPL Home Earth Solar System Stars & Galaxies Technology
JPL Solar System Dynamics
BODIES ORBITS EPHEMERIDES TOOLS PHYSICAL DATA DISCOVERY FAQ SITE MAP
JPL Small-Body Database Browser
Search: [ help ]  
(2007 PF6)
Classification: Apollo [NEO, PHA]          SPK-ID: 3381133
Ephemeris | Orbit Diagram | Orbital Elements | Physical Parameters | Close-Approach Data ]

[ hide orbit diagram ]
Orbit Diagram
Note: Make sure you have Java enabled on your browser to see the applet. This applet is provided as a 3D orbit visualization tool. The applet was implemented using 2-body methods, and hence should not be used for determining accurate long-term trajectories (over several years or decades) or planetary encounter circumstances. For accurate long-term ephemerides, please instead use our Horizons system.
Orbit Viewer

Additional Notes: the orbits shown in the applet are color coded. The planets are white lines, and the asteroid/comet is a blue line. The bright white line indicates the portion of the orbit that is above the ecliptic plane, and the darker portion is below the ecliptic plane. Likewise for the asteroid/comet orbit, the light blue indicates the portion above the ecliptic plane, and the dark blue the portion below the ecliptic plane.

Orbit Viewer applet originally written and kindly provided by Osamu Ajiki (AstroArts), and further modified by Ron Baalke (JPL).


Orbital Elements at Epoch 2456400.5 (2013-Apr-18.0) TDB
Reference: JPL 19 (heliocentric ecliptic J2000)
 Element Value Uncertainty (1-sigma)   Units 
e .4164173762347838 3.8608e-07  
a 1.298659289253957 4.3208e-08 AU
q .7578749953998948 5.2006e-07 AU
i 25.60130475622314 6.2746e-05 deg
node 316.4017855471669 1.3902e-05 deg
peri 251.2187338337957 6.2191e-05 deg
M 2.148262112259891 6.091e-05 deg
tp 2456397.274284695530
(2013-Apr-14.77428470)
9.137e-05 JED
period 540.5567146494784
1.48
2.6978e-05
7.386e-08
d
yr
n .665980072476651 3.3237e-08 deg/d
Q 1.839443583108018 6.1201e-08 AU
  Orbit Determination Parameters
   # obs. used (total)      69  
   data-arc span      2034 days (5.57 yr)  
   first obs. used      2007-08-08  
   last obs. used      2013-03-03  
   planetary ephem.      DE405  
   SB-pert. ephem.      SB405-CPV-2  
   condition code      1  
   fit RMS      .65909  
   data source      ORB  
   producer      Otto Matic  
   solution date      2013-Mar-03 01:02:07  

Additional Information
 Earth MOID = .0308253 AU 
 T_jup = 4.826 
[ show covariance matrix ]

Ephemeris | Orbit Diagram | Orbital Elements | Physical Parameters | Close-Approach Data ]

Physical Parameter Table
Parameter Symbol Value Units Sigma Reference Notes
absolute magnitude H 20.59 mag .56794 19 autocmod 2.5b

[ show close-approach data ]
Ephemeris | Orbit Diagram | Orbital Elements | Physical Parameters | Close-Approach Data ]
ABOUT SSD CREDITS/AWARDS PRIVACY/COPYRIGHT GLOSSARY LINKS
FirstGov 2013-May-23 14:39 UT
(server date/time)  
NASA Home Page
Site Manager:   Donald K. Yeomans
Webmaster  Alan B. Chamberlin